CZ-4 DEB

Satellite information

Favourite Embed

Satellite Type and Status

DEBRISIN ORBIT

Key statistics

Satellite CZ-4 DEB at a glance.

Uptime

9499

Days in orbit

Revolutions

≈ 14.0

Per day

Orbit

SSO

Sun Synchronous Orbit

Inclination

99.3

Latest

Satellite identification and parameters

Extended collection of information and parameters for CZ-4 DEB.

Object identification

Identified? True

Debris? True

Object name: CZ-4 DEB

International designator: 1999-057AV

Object number (NORAD): 26159

Object ID (CCSDS): 26159

Country: PEOPLES REPUBLIC OF CHINA (PRC)

Current information (Y/N): Y

RCS size: MEDIUM

Orbital parameters

Period: 102.714 minutes

Inclination: 99.3443 deg

SMA: 7265.171 km

Apoapsis: 1102.407 km

Periapsis: 671.666 km

RAAN: 247.4709 deg

Eccentricy: 0.02964421

Argument of periapsis: 311.0117 deg

Mean anomaly: 121.5799 deg

Mean motion: 14.01954672 rev/day

Mean motion (dot): 0.00004673 rev/day2

B* drag term: 0.0021075055 1/REarth

Two-line elements (TLE)

Creation date: Oct. 16, 2025, 2:37 a.m.

Reference frame: TEME

Reference center: EARTH

Epoch: Oct. 15, 2025, 10:28 p.m. UTC

TLE line 0: 0 CZ-4 DEB

TLE line 1: 1 26159U 99057AV 25288.93617258 .00004673 00000-0 21075-2 0 9996

TLE line 2: 2 26159 99.3443 247.4709 0296442 311.0117 121.5799 14.01954672293783

Live tracking on map

Real-time ground track for satellite CZ-4 DEB.

In-orbit conjunctions

A list of the most updated potential collisions computed for object CZ-4 DEB.

Target Orbit TCA Probability of collision Miss distance Type
BPA 1/SL-24 R/B SSO 2024-11-16 11:47:00 0.0001475056 902.0 (m) ROCKET BODY
DELTA 1 DEB SSO 2024-11-13 17:03:31 0.0001931195 708.0 (m) DEBRIS
DELTA 1 DEB SSO 2024-09-26 00:42:43 0.0001932634 246.0 (m) DEBRIS

Associated space launch

The CBERS (China Brazil Earth Resources Satellite) or ZY 1 (Zi Yuan) satellites are designed for global coverage and include cameras to make optical observations and a data collecting system to gather data on the environment. They are unique systems due to the use of on-board sensors which combine features that are especially designed to resolve the broad range of space and time scales involved in the monitoring and preservation of the ecosystem. They are operated jointly by the China Centre for Resources Satellite Data and Application (CRESDA) and the Brazilian INPE (Instituto Nacional de Pesquisas Espaciais, National Institute of Space Research).

CZ-4 DEB was lifted into orbit during the mission ‘Long March 4B | Zi Yuan 1-1’, on board a Long March 4B space rocket.

The launch took place on Oct. 14, 1999, 3:15 a.m. from Launch Complex 7.

For more information about the launch, click the button.

Launch to space Long March 4B | Zi Yuan 1-1
Long March 4B | Zi Yuan 1-1

Agency: N/A

Status: Launch Successful

Launch date: Oct. 14, 1999, 3:15 a.m. UTC

Rocket: Long March 4B

Launch pad: Launch Complex 7

Location: Taiyuan Satellite Launch Center, People's Republic of China

...

Latest news about this satellite

There are no fresh news available about this satellite. Check back as we update our databases every day.


Newsletter sign-up

Weekly statistics, charts and insights to help you stay on top of the space industry.